GFSNGP_850_dewp_240.txt.gz
Dewpoint
6 6 7 7 7 6 7 6 7 5 4 5 3 2 2 2 4 3 -2 -4 -3 -2 1 3 3 3 1 -8 -8 -7 -7 -7 -8 -7 -8 -9 -10 -10 -10 -10 -9 -4 -3 -3
5 6 6 7 6 6 5 5 5 6 7 2 -4 -7 -6 -7 4 5 5 4 5 4 4 2 -4 -9 -9 -8 -7 -6 -6 -7 -7 -6 -7 -7 -7 -9 -9 -10 -11 -10 -5 -4
7 5 6 6 5 6 5 5 5 6 2 -10 -9 -9 -10 -10 -10 -10 -11 -11 -11 -11 -11 -10 -9 -8 -7 -7 -6 -7 -6 -5 -5 -6 -6 -6 -6 -6 -8 -8 -10 -10 -8 -5
8 7 8 3 2 3 5 4 3 -1 -9 -10 -10 -10 -10 -9 -11 -11 -10 -8 -9 -8 -9 -8 -7 -6 -5 -5 -4 -4 -4 -4 -4 -5 -5 -5 -5 -5 -6 -7 -9 -10 -9 -7
8 6 4 4 2 2 2 2 -6 -6 -8 -7 -12 -12 -13 -10 -9 -8 -7 -7 -7 -7 -7 -7 -6 -5 -5 -4 -4 -4 -3 -3 -3 -3 -3 -3 -3 -4 -5 -7 -8 -9 -10 -10
6 8 8 1 -8 -8 -3 2 -7 -6 -9 -12 -10 -3 -7 -5 -6 -6 -6 -5 -5 -4 -3 -4 -4 -3 -3 -3 -3 -3 -3 -3 -3 -2 -2 -2 -2 -2 -4 -5 -8 -8 -8 -7
7 7 6 3 -10 -3 5 3 -8 -9 -10 -9 -6 -5 -3 -3 -3 -3 -3 -4 -5 -5 -6 -6 -6 -7 -8 -8 -7 -6 -9 -8 -6 -6 -5 -4 -4 -3 -3 -3 -7 -7 -7 -7
6 7 7 -6 -5 0 -1 -4 -5 -6 -6 -6 -3 -2 -2 -2 -3 -4 -5 -6 -7 -8 -8 -8 -9 -12 -13 -12 -10 -12 -13 -13 -12 -11 -10 -8 -5 -4 -3 -3 -4 -4 -6 -7
4 4 -2 0 0 -0 -4 -5 -6 -5 -5 -4 -3 -2 -2 -3 -4 -6 -8 -9 -10 -10 -10 -12 -14 -15 -14 -13 -15 -17 -17 -16 -15 -11 -9 -8 -6 -5 -4 -3 -4 -4 -5 -7
4 3 -0 1 1 1 -1 -2 -2 -3 -3 -3 -3 -3 -4 -5 -7 -9 -11 -12 -13 -15 -16 -17 -20 -19 -18 -17 -17 -17 -16 -14 -13 -11 -8 -8 -7 -7 -5 -5 -4 -5 -5 -8
3 2 1 1 0 -4 -4 -4 -3 -3 -4 -5 -6 -7 -7 -10 -15 -15 -18 -19 -19 -22 -24 -22 -18 -16 -14 -14 -14 -15 -16 -16 -15 -15 -12 -9 -8 -7 -6 -6 -5 -5 -6 -6
5 2 2 -0 -1 -1 -3 -3 -4 -5 -7 -9 -12 -16 -21 -23 -23 -22 -20 -22 -26 -24 -21 -20 -17 -12 -11 -13 -14 -15 -15 -14 -14 -15 -15 -14 -10 -9 -8 -6 -5 -6 -6 -7
2 1 1 -1 -1 -3 -3 -6 -7 -9 -12 -19 -24 -24 -25 -25 -20 -21 -25 -24 -22 -19 -17 -16 -15 -12 -14 -14 -15 -15 -16 -16 -16 -16 -16 -15 -11 -10 -9 -9 -7 -6 -6 -7
1 0 -2 -2 -3 -5 -6 -8 -11 -17 -22 -24 -24 -26 -25 -23 -24 -23 -21 -19 -16 -16 -15 -15 -15 -15 -16 -18 -20 -20 -19 -13 -14 -15 -16 -16 -15 -11 -9 -9 -9 -8 -7 -7
-1 0 0 -3 -5 -7 -9 -13 -19 -21 -23 -24 -26 -23 -23 -24 -21 -19 -16 -16 -17 -17 -15 -15 -16 -19 -20 -20 -21 -20 -20 -15 -16 -18 -19 -18 -18 -17 -13 -11 -10 -9 -9 -8
-3 -0 -3 -4 -7 -9 -13 -18 -21 -21 -23 -24 -22 -23 -22 -20 -18 -15 -16 -17 -18 -18 -14 -17 -19 -20 -20 -20 -20 -20 -20 -20 -20 -19 -17 -16 -17 -15 -14 -14 -13 -12 -11 -10
-2 -6 -6 -7 -9 -13 -18 -21 -21 -23 -23 -21 -22 -21 -20 -17 -15 -17 -19 -19 -19 -19 -19 -20 -20 -20 -20 -20 -20 -20 -20 -20 -20 -19 -16 -16 -16 -16 -15 -15 -14 -13 -13 -13
-2 -5 -7 -7 -11 -17 -20 -19 -21 -22 -20 -21 -21 -19 -16 -15 -17 -18 -19 -19 -20 -20 -20 -20 -20 -20 -20 -19 -19 -19 -19 -19 -20 -19 -17 -17 -17 -17 -16 -16 -15 -15 -15 -16
-4 -6 -8 -11 -18 -23 -23 -21 -22 -20 -22 -20 -19 -15 -15 -16 -18 -19 -19 -20 -20 -20 -20 -20 -20 -20 -19 -19 -19 -19 -19 -19 -19 -19 -19 -18 -17 -17 -16 -16 -16 -15 -15 -15
-6 -8 -14 -23 -23 -24 -23 -22 -20 -22 -20 -18 -16 -16 -16 -18 -18 -19 -20 -20 -20 -20 -20 -20 -20 -19 -19 -19 -19 -19 -19 -19 -19 -19 -20 -19 -19 -19 -19 -18 -16 -16 -16 -16
-10 -19 -25 -25 -23 -23 -23 -20 -23 -19 -18 -17 -16 -16 -18 -19 -18 -19 -20 -20 -20 -20 -20 -20 -21 -20 -19 -19 -19 -18 -18 -19 -20 -20 -21 -21 -20 -19 -19 -18 -18 -18 -18 -17
-19 -25 -26 -25 -24 -22 -20 -22 -18 -18 -18 -17 -17 -17 -18 -18 -19 -20 -19 -19 -20 -20 -21 -23 -25 -24 -21 -19 -18 -18 -19 -19 -20 -21 -22 -22 -21 -21 -20 -19 -19 -18 -18 -17
-23 -26 -26 -25 -23 -23 -23 -18 -18 -18 -18 -17 -18 -18 -18 -18 -19 -19 -20 -20 -20 -20 -22 -26 -27 -27 -24 -19 -18 -18 -19 -19 -20 -22 -22 -22 -22 -22 -21 -21 -20 -19 -18 -17
-24 -25 -26 -22 -21 -21 -18 -17 -18 -18 -18 -18 -17 -18 -18 -19 -19 -19 -19 -20 -20 -21 -24 -28 -27 -27 -26 -22 -18 -18 -19 -19 -20 -22 -22 -22 -22 -22 -22 -21 -21 -20 -20 -18
-23 -25 -23 -22 -22 -19 -17 -18 -18 -18 -18 -17 -18 -18 -18 -19 -19 -19 -19 -20 -20 -21 -26 -28 -27 -27 -26 -26 -20 -18 -18 -19 -19 -20 -21 -22 -22 -22 -22 -22 -22 -21 -21 -20
-22 -23 -25 -25 -22 -18 -19 -18 -18 -19 -19 -18 -19 -19 -19 -19 -19 -19 -19 -20 -20 -21 -28 -28 -27 -27 -26 -26 -25 -18 -18 -18 -19 -19 -20 -21 -21 -22 -22 -22 -21 -21 -21 -20
-21 -24 -22 -19 -17 -18 -18 -17 -18 -20 -19 -19 -19 -19 -19 -19 -19 -19 -20 -20 -20 -21 -28 -28 -27 -26 -25 -25 -25 -25 -18 -17 -18 -18 -19 -19 -20 -21 -21 -21 -21 -21 -20 -20

GFSNGP_850_dewp_246.txt.gz
Dewpoint
4 4 4 5 5 4 6 5 8 6 4 2 2 1 -2 0 -3 -6 -6 -6 -5 -5 -4 -5 -8 -8 -8 -7 -6 -6 -3 -1 -0 -0 -0 -0 -0 0 0 0 -0 -1 -1 -2
7 3 2 4 3 3 4 3 3 3 4 0 -3 -5 -6 -8 -8 -8 -6 -5 -4 -3 -3 -3 -3 -3 -2 -3 -4 -3 -2 -1 -2 -2 -2 -2 -1 -1 -1 -1 -1 -0 -0 -1
6 2 3 5 4 2 2 1 2 4 2 -1 -3 -6 -6 -7 -6 -5 -3 -3 -3 -3 -3 -4 -4 -4 -4 -5 -5 -5 -4 -5 -5 -6 -5 -5 -5 -4 -4 -3 -3 -3 -3 -2
6 4 7 1 -1 -1 0 0 -0 0 0 -0 -4 -4 -4 -4 -3 -2 -2 -3 -3 -3 -4 -4 -5 -6 -6 -6 -7 -8 -10 -11 -12 -11 -11 -11 -10 -9 -8 -7 -6 -5 -4 -4
8 6 3 -0 -1 1 3 2 -2 -1 -3 -5 -5 -4 -2 -1 -2 -2 -3 -4 -4 -4 -4 -6 -9 -11 -11 -11 -12 -13 -12 -11 -11 -11 -11 -10 -10 -9 -8 -8 -7 -7 -7 -7
8 8 4 0 -3 -6 -2 4 -4 -3 -4 -8 -9 -3 -2 -1 -2 -3 -5 -5 -6 -6 -9 -12 -13 -13 -13 -14 -14 -13 -11 -11 -11 -11 -10 -10 -10 -9 -9 -9 -9 -8 -7 -7
7 8 6 0 -2 -2 7 6 -5 -6 -6 -6 -3 -1 -0 -2 -3 -4 -5 -6 -10 -13 -15 -15 -14 -13 -14 -13 -13 -12 -12 -12 -12 -12 -11 -12 -11 -11 -10 -10 -10 -9 -8 -7
6 9 6 -1 -2 5 3 -1 -3 -5 -2 -0 1 -0 -1 -3 -5 -6 -8 -12 -16 -18 -18 -16 -14 -13 -14 -12 -12 -13 -14 -14 -14 -13 -13 -13 -12 -11 -11 -11 -10 -10 -9 -9
4 4 2 -1 -0 1 1 1 -1 -2 -1 2 0 -1 -3 -4 -6 -8 -14 -18 -19 -19 -18 -17 -16 -14 -13 -12 -13 -15 -15 -16 -15 -14 -14 -12 -12 -12 -12 -11 -11 -11 -11 -10
4 2 3 3 3 2 1 0 -1 -1 -1 1 -1 -2 -4 -6 -9 -15 -18 -19 -18 -17 -16 -15 -14 -13 -13 -13 -14 -15 -15 -15 -15 -15 -14 -13 -13 -12 -12 -12 -12 -11 -11 -12
6 4 2 2 2 3 1 0 0 1 0 -2 -2 -4 -7 -10 -14 -17 -18 -18 -16 -15 -14 -14 -14 -14 -14 -14 -14 -15 -15 -15 -15 -14 -14 -13 -13 -13 -12 -12 -12 -12 -13 -11
5 0 2 2 3 2 1 1 0 -1 -4 -5 -6 -9 -14 -15 -16 -17 -17 -15 -15 -14 -14 -14 -14 -14 -15 -14 -14 -14 -14 -14 -14 -14 -13 -13 -13 -14 -13 -13 -13 -13 -13 -12
0 1 2 3 1 1 -0 -1 -2 -4 -7 -8 -12 -17 -18 -17 -16 -23 -15 -15 -14 -15 -15 -14 -13 -14 -14 -15 -14 -13 -13 -13 -14 -13 -13 -13 -13 -14 -14 -15 -13 -13 -13 -12
1 3 1 1 1 0 -0 -2 -5 -7 -9 -13 -19 -22 -22 -18 -21 -16 -14 -14 -14 -15 -14 -13 -13 -14 -14 -15 -14 -14 -14 -14 -13 -14 -14 -15 -14 -15 -15 -15 -15 -14 -14 -14
-0 2 1 1 -0 0 -1 -5 -8 -9 -12 -18 -21 -23 -18 -20 -16 -15 -14 -14 -15 -15 -14 -15 -16 -15 -15 -15 -15 -14 -14 -14 -14 -15 -15 -15 -15 -15 -15 -15 -15 -15 -14 -14
-0 1 0 0 -0 -2 -5 -7 -9 -12 -14 -19 -21 -19 -21 -21 -18 -14 -13 -18 -22 -19 -18 -21 -16 -16 -18 -22 -15 -15 -14 -14 -15 -15 -15 -15 -16 -16 -16 -16 -16 -16 -15 -14
0 -0 -0 -0 -1 -4 -6 -8 -11 -13 -18 -22 -19 -19 -19 -19 -16 -14 -16 -21 -21 -22 -21 -16 -20 -22 -27 -25 -18 -15 -15 -15 -15 -15 -15 -16 -16 -17 -17 -17 -17 -16 -16 -16
-2 -3 -1 -1 -1 -4 -7 -9 -12 -17 -24 -21 -18 -19 -21 -20 -19 -21 -22 -22 -22 -22 -21 -21 -22 -26 -28 -27 -25 -16 -16 -15 -16 -16 -16 -17 -17 -18 -18 -18 -18 -17 -17 -16
-2 -1 -1 -2 -2 -5 -7 -9 -13 -22 -23 -24 -25 -23 -21 -21 -21 -22 -22 -21 -22 -18 -15 -22 -25 -28 -24 -28 -26 -25 -16 -16 -16 -16 -17 -17 -18 -18 -18 -18 -19 -18 -18 -17
-1 -2 -3 -3 -4 -5 -7 -10 -19 -20 -20 -25 -23 -22 -21 -21 -22 -22 -21 -21 -20 -21 -21 -22 -27 -24 -27 -27 -27 -20 -16 -16 -17 -17 -17 -18 -18 -18 -19 -19 -19 -19 -19 -18
-3 -3 -3 -4 -6 -7 -9 -15 -24 -24 -26 -23 -23 -22 -22 -22 -22 -21 -21 -14 -13 -20 -21 -23 -25 -22 -28 -27 -26 -18 -17 -17 -17 -18 -18 -18 -19 -19 -19 -20 -20 -20 -20 -20
-4 -4 -4 -6 -8 -11 -18 -27 -26 -26 -24 -23 -22 -22 -22 -22 -21 -21 -20 -20 -19 -20 -21 -22 -24 -28 -28 -26 -25 -25 -22 -19 -18 -18 -18 -18 -19 -19 -20 -20 -20 -21 -21 -21
-5 -4 -6 -8 -12 -22 -27 -26 -26 -24 -24 -22 -22 -22 -22 -20 -21 -18 -14 -15 -20 -20 -21 -23 -29 -28 -28 -26 -26 -28 -28 -24 -19 -18 -19 -19 -19 -20 -20 -20 -21 -21 -21 -21
-4 -6 -8 -16 -24 -28 -26 -25 -23 -23 -21 -22 -22 -22 -21 -20 -19 -19 -19 -20 -20 -21 -21 -23 -28 -28 -28 -26 -26 -28 -30 -28 -22 -23 -18 -18 -19 -20 -20 -21 -21 -21 -22 -22
-5 -9 -17 -24 -24 -21 -24 -24 -22 -21 -21 -21 -22 -21 -21 -21 -20 -17 -19 -20 -20 -20 -21 -22 -27 -29 -28 -26 -26 -27 -30 -30 -29 -27 -23 -17 -18 -18 -19 -19 -20 -21 -22 -22
-10 -15 -21 -20 -19 -19 -19 -22 -16 -15 -18 -20 -20 -20 -21 -20 -20 -20 -20 -20 -20 -20 -21 -22 -25 -29 -28 -27 -26 -26 -29 -30 -30 -29 -27 -22 -16 -16 -17 -17 -18 -18 -19 -20
-16 -20 -16 -16 -17 -16 -22 -19 -14 -15 -22 -21 -18 -20 -20 -19 -20 -19 -20 -20 -20 -20 -21 -22 -23 -28 -28 -27 -26 -25 -27 -29 -30 -30 -30 -28 -23 -16 -15 -16 -16 -16 -17 -17

GFSNGP_850_dewp_252.txt.gz
Dewpoint
3 3 4 3 2 2 2 2 6 5 3 -2 1 2 2 -1 -3 -4 -5 -5 -4 -3 -3 -3 -3 -3 -3 -3 -3 -4 -6 -8 -10 -11 -12 -12 -11 -12 -11 -10 -10 -9 -9 -9
8 4 3 2 0 -0 -0 0 -1 -1 -0 1 -0 -2 -3 -4 -4 -5 -5 -4 -3 -4 -3 -3 -4 -5 -6 -8 -9 -10 -11 -11 -11 -12 -12 -11 -11 -11 -11 -11 -10 -10 -9 -9
7 3 1 5 3 1 0 -2 -2 0 0 -1 1 -0 -3 -3 -4 -5 -3 -3 -3 -3 -3 -4 -6 -10 -12 -10 -11 -12 -11 -11 -11 -11 -11 -11 -11 -11 -11 -11 -11 -10 -10 -11
9 5 8 2 -1 -3 -3 -3 -3 -2 -0 -2 -1 -2 -2 -2 -3 -2 -3 -3 -3 -3 -4 -6 -11 -13 -12 -13 -13 -12 -12 -11 -12 -12 -12 -12 -13 -12 -12 -13 -11 -11 -11 -11
9 7 3 -0 -2 -1 -0 -1 -1 0 1 -2 -1 -1 -1 -1 -1 -1 -3 -3 -4 -5 -7 -12 -13 -13 -13 -14 -13 -12 -12 -12 -13 -14 -14 -14 -13 -14 -14 -12 -12 -11 -11 -11
8 7 5 -1 -1 -2 -2 2 1 2 1 0 -1 4 1 -1 -1 -2 -3 -5 -7 -11 -16 -16 -15 -14 -13 -14 -13 -12 -13 -14 -15 -15 -14 -14 -14 -14 -13 -14 -11 -11 -11 -10
8 9 6 -1 -2 -1 5 4 1 1 0 -1 1 -0 0 0 -1 -2 -3 -7 -12 -18 -18 -17 -16 -16 -15 -15 -13 -14 -15 -15 -15 -15 -14 -15 -14 -14 -13 -12 -12 -11 -11 -12
6 8 7 -1 -1 4 4 3 2 2 1 -0 -0 -0 -0 -1 -2 -3 -6 -11 -17 -20 -19 -17 -16 -15 -15 -14 -15 -15 -15 -15 -15 -15 -15 -14 -14 -13 -12 -11 -12 -12 -12 -12
5 5 -0 0 2 3 3 3 3 2 0 0 1 0 -0 -1 -3 -5 -10 -17 -20 -20 -18 -16 -15 -15 -14 -14 -15 -15 -15 -15 -15 -15 -14 -14 -13 -12 -11 -12 -13 -12 -12 -14
4 1 1 1 1 1 2 3 2 1 1 1 1 1 1 -2 -4 -7 -15 -20 -20 -18 -17 -16 -15 -15 -14 -15 -14 -14 -15 -15 -15 -15 -14 -13 -12 -12 -12 -13 -13 -13 -13 -13
5 2 1 0 0 1 2 3 2 1 1 2 1 2 -1 -3 -6 -11 -18 -19 -18 -17 -15 -15 -15 -15 -14 -14 -14 -14 -15 -16 -16 -15 -15 -12 -12 -12 -13 -13 -13 -13 -13 -13
8 2 3 1 0 1 2 2 2 1 2 2 2 1 -2 -5 -9 -14 -18 -17 -16 -15 -15 -15 -15 -14 -14 -14 -14 -15 -19 -22 -16 -15 -12 -13 -13 -14 -13 -13 -13 -13 -14 -14
-1 -2 -2 -2 2 2 3 2 2 2 2 1 -1 -2 -5 -10 -14 -17 -17 -16 -16 -15 -16 -15 -14 -14 -13 -14 -19 -23 -26 -20 -16 -13 -13 -13 -13 -14 -14 -16 -14 -14 -15 -15
-1 -0 1 2 2 2 2 2 2 1 0 -2 -4 -7 -11 -13 -14 -16 -16 -15 -15 -16 -15 -13 -14 -14 -14 -19 -26 -30 -24 -19 -14 -15 -14 -14 -14 -13 -14 -14 -14 -17 -16 -15
-4 -2 -1 -1 -1 0 2 1 0 -0 -3 -5 -8 -11 -13 -15 -16 -15 -14 -14 -15 -14 -13 -13 -16 -16 -19 -26 -30 -30 -26 -20 -17 -16 -14 -14 -14 -14 -14 -15 -16 -15 -16 -17
-4 -4 -4 -4 -4 -2 2 0 -0 -1 -5 -7 -11 -13 -14 -16 -16 -14 -14 -16 -21 -16 -22 -19 -18 -21 -25 -28 -32 -31 -28 -24 -20 -14 -13 -14 -14 -14 -15 -15 -15 -15 -16 -16
-5 -4 -4 -4 -3 -2 2 0 -1 -2 -6 -8 -11 -13 -14 -15 -15 -14 -14 -17 -18 -24 -24 -17 -21 -24 -27 -30 -31 -30 -27 -26 -16 -14 -14 -14 -15 -15 -15 -15 -15 -16 -16 -17
-3 -4 -4 -4 -4 1 1 0 -1 -3 -6 -9 -12 -13 -15 -15 -15 -13 -15 -21 -25 -25 -23 -20 -23 -26 -28 -30 -30 -29 -28 -21 -14 -15 -15 -15 -15 -15 -15 -16 -16 -16 -16 -17
-5 -5 -4 -4 -3 1 1 0 -1 -3 -7 -10 -12 -13 -16 -17 -15 -17 -23 -25 -26 -22 -15 -19 -24 -26 -25 -24 -30 -30 -27 -15 -15 -15 -15 -15 -15 -15 -15 -16 -16 -16 -17 -17
-5 -4 -4 -4 -1 0 1 0 -2 -5 -8 -10 -12 -15 -19 -21 -25 -24 -25 -26 -25 -19 -19 -23 -24 -25 -19 -26 -31 -30 -21 -14 -15 -16 -15 -15 -16 -16 -16 -16 -16 -16 -17 -17
-2 -2 -3 -4 0 -0 0 -1 -3 -7 -9 -10 -12 -20 -27 -26 -25 -25 -25 -23 -14 -18 -23 -24 -24 -21 -24 -29 -31 -30 -16 -15 -16 -16 -16 -16 -17 -16 -16 -16 -16 -17 -17 -17
-1 -1 -2 -2 -1 0 -1 -3 -5 -7 -9 -11 -20 -26 -26 -25 -25 -25 -25 -20 -12 -21 -23 -24 -24 -27 -27 -30 -31 -28 -17 -17 -19 -17 -16 -18 -18 -19 -18 -17 -17 -17 -17 -17
-0 -0 -0 -0 -0 -1 -4 -5 -6 -8 -10 -19 -29 -27 -25 -25 -26 -23 -17 -16 -17 -24 -23 -23 -25 -27 -28 -29 -31 -25 -19 -22 -19 -18 -20 -22 -22 -24 -21 -22 -23 -22 -16 -17
-0 -1 -1 -1 -2 -4 -6 -7 -9 -11 -17 -27 -27 -25 -24 -16 -14 -18 -20 -14 -19 -22 -23 -24 -26 -28 -29 -29 -30 -26 -26 -25 -20 -20 -23 -25 -27 -26 -27 -28 -29 -28 -25 -17
-2 -3 -3 -4 -4 -7 -7 -9 -12 -18 -24 -25 -25 -24 -23 -16 -15 -12 -17 -21 -23 -23 -24 -24 -26 -29 -30 -28 -28 -28 -29 -26 -21 -20 -22 -26 -27 -28 -29 -30 -30 -30 -30 -28
-3 -4 -5 -6 -7 -9 -9 -14 -21 -26 -25 -23 -23 -24 -23 -20 -21 -20 -19 -21 -22 -23 -23 -24 -25 -27 -27 -27 -26 -28 -28 -26 -24 -23 -25 -25 -26 -27 -28 -29 -30 -31 -31 -30
-4 -5 -6 -8 -10 -11 -13 -19 -21 -23 -21 -17 -18 -20 -22 -21 -23 -22 -21 -18 -20 -20 -21 -22 -22 -23 -23 -25 -26 -25 -25 -27 -27 -26 -27 -26 -25 -25 -26 -28 -29 -30 -31 -31

GFSNGP_850_dewp_258.txt.gz
Dewpoint
5 5 4 5 5 5 5 4 5 4 6 4 4 3 1 -1 -2 -3 -3 -3 -3 -3 -4 -4 -5 -6 -8 -13 -21 -20 -21 -20 -19 -23 -27 -29 -29 -26 -25 -24 -21 -20 -21 -20
4 5 5 5 4 4 4 3 3 2 2 1 3 1 -2 -3 -4 -4 -4 -4 -4 -4 -4 -4 -4 -6 -11 -18 -18 -17 -18 -16 -16 -23 -26 -25 -22 -23 -24 -21 -21 -23 -22 -19
5 5 3 4 3 3 3 2 1 3 1 0 -1 -1 -2 -3 -4 -4 -4 -4 -4 -4 -4 -4 -5 -7 -15 -18 -15 -14 -15 -14 -15 -21 -24 -23 -23 -24 -22 -24 -25 -21 -19 -16
6 4 4 1 1 1 2 0 -0 1 1 -1 -2 -2 -3 -4 -4 -4 -4 -3 -3 -3 -4 -4 -6 -10 -18 -17 -14 -14 -14 -14 -16 -23 -24 -24 -26 -23 -24 -26 -21 -19 -17 -18
5 5 4 2 -0 -1 1 2 1 1 -1 -1 -2 -3 -3 -4 -4 -4 -4 -3 -3 -3 -4 -6 -11 -15 -19 -16 -15 -14 -15 -16 -19 -23 -25 -27 -25 -24 -26 -20 -19 -18 -18 -17
3 6 5 3 -0 -1 -2 4 2 -0 -0 -1 -1 0 -0 -2 -3 -3 -3 -3 -3 -4 -6 -12 -16 -18 -19 -18 -16 -16 -17 -17 -21 -26 -27 -27 -24 -25 -20 -19 -18 -17 -18 -17
5 3 4 2 1 -1 2 2 1 -1 -1 -1 -0 -1 -2 -1 -1 -2 -2 -3 -4 -5 -10 -16 -18 -19 -18 -18 -17 -17 -17 -18 -26 -28 -28 -27 -27 -21 -19 -18 -18 -17 -17 -16
5 7 7 1 2 2 1 1 1 0 -1 -1 -1 -1 -1 -1 -1 -1 -2 -3 -5 -9 -17 -19 -19 -18 -17 -16 -17 -17 -17 -22 -29 -32 -30 -27 -25 -21 -18 -17 -17 -17 -16 -15
4 4 1 0 1 1 0 0 1 1 1 1 -0 -1 -0 -0 -0 -1 -2 -3 -8 -13 -19 -19 -18 -16 -16 -16 -16 -17 -18 -26 -31 -33 -29 -27 -23 -18 -17 -17 -16 -16 -14 -15
3 2 1 -1 -0 2 1 1 2 2 2 1 0 -1 -0 -0 -1 -2 -3 -7 -12 -18 -20 -19 -17 -16 -16 -16 -17 -18 -23 -29 -33 -32 -30 -28 -20 -17 -17 -16 -15 -14 -14 -15
2 2 2 1 1 2 3 3 2 3 2 2 0 -1 0 -0 -1 -2 -3 -8 -11 -17 -19 -18 -17 -16 -16 -17 -17 -21 -27 -31 -33 -30 -29 -26 -19 -17 -16 -16 -14 -14 -14 -15
3 1 2 1 1 1 0 1 2 2 2 1 0 -1 0 1 0 -2 -4 -7 -13 -18 -18 -18 -17 -17 -17 -18 -19 -27 -29 -33 -32 -29 -29 -25 -22 -19 -17 -16 -16 -14 -15 -15
-1 -0 0 -1 -0 -1 -2 -1 1 2 2 2 0 0 1 1 0 -2 -4 -7 -11 -14 -18 -18 -17 -18 -19 -19 -24 -27 -31 -33 -31 -29 -26 -24 -25 -21 -18 -16 -16 -16 -15 -15
-1 -1 -0 -1 -2 -2 -1 0 2 2 2 2 1 0 0 1 -0 -3 -5 -7 -11 -15 -19 -18 -18 -20 -20 -24 -26 -28 -33 -33 -31 -29 -24 -25 -26 -23 -19 -17 -16 -16 -16 -16
-3 -4 -3 -2 -2 -3 -3 -4 1 2 2 2 1 0 0 1 -0 -4 -7 -10 -13 -16 -19 -18 -22 -21 -24 -25 -27 -30 -33 -33 -31 -26 -24 -27 -27 -25 -23 -20 -17 -16 -16 -16
-7 -6 -5 -5 -5 -5 -4 -3 -0 2 2 2 1 1 -0 -2 -3 -5 -9 -11 -13 -17 -19 -23 -23 -24 -27 -26 -28 -31 -33 -33 -31 -26 -27 -29 -28 -27 -27 -26 -21 -18 -17 -16
-4 -3 -4 -4 -4 -4 -4 -3 -2 -1 0 2 1 0 -2 -4 -6 -8 -12 -14 -15 -19 -23 -25 -25 -27 -27 -27 -29 -32 -33 -33 -31 -26 -27 -28 -28 -28 -29 -28 -27 -27 -25 -20
-7 -6 -6 -5 -4 -3 -3 -4 -4 -4 -1 -0 1 -1 -3 -4 -6 -10 -12 -14 -17 -21 -25 -27 -28 -26 -27 -27 -30 -32 -33 -32 -30 -28 -28 -28 -28 -29 -30 -30 -30 -30 -30 -30
-5 -5 -5 -5 -5 -5 -4 -5 -4 -4 -3 -2 0 -1 -2 -5 -7 -10 -12 -15 -19 -23 -27 -29 -25 -26 -27 -27 -30 -30 -31 -32 -31 -28 -27 -27 -28 -30 -30 -30 -30 -30 -31 -31
-7 -6 -6 -6 -5 -4 -3 -3 -5 -4 -3 -1 -0 -1 -4 -6 -9 -10 -13 -16 -23 -22 -28 -27 -25 -27 -27 -27 -30 -27 -30 -32 -31 -30 -28 -27 -27 -28 -29 -29 -29 -30 -31 -31
-8 -7 -6 -6 -3 -2 -2 -3 -4 -4 -3 -1 -0 -1 -4 -6 -9 -12 -14 -21 -23 -27 -28 -22 -26 -27 -26 -27 -28 -28 -30 -32 -31 -31 -30 -27 -26 -26 -27 -27 -28 -28 -29 -30
-6 -5 -5 -6 -10 -8 -6 -4 -3 -2 -1 -0 -1 -3 -5 -7 -10 -12 -16 -22 -26 -28 -24 -24 -27 -26 -26 -27 -27 -30 -30 -31 -31 -31 -30 -28 -27 -26 -26 -26 -26 -26 -27 -28
-5 -4 -3 -7 -8 -4 -2 -1 -1 -1 -0 -0 -1 -3 -5 -7 -9 -12 -21 -26 -28 -27 -24 -25 -26 -26 -26 -26 -28 -30 -30 -30 -31 -31 -31 -30 -29 -28 -27 -26 -26 -26 -26 -26
-2 -3 -6 -7 -4 -1 -0 0 0 -0 -0 -1 -3 -5 -6 -8 -11 -18 -26 -27 -27 -24 -21 -25 -25 -26 -26 -25 -27 -30 -30 -30 -30 -30 -30 -30 -29 -29 -28 -27 -27 -27 -26 -26
-2 -4 -5 -4 -2 -1 -0 -0 -0 -1 -3 -4 -6 -8 -9 -10 -19 -29 -28 -27 -22 -23 -23 -24 -25 -25 -25 -26 -27 -28 -29 -30 -30 -29 -29 -29 -29 -29 -29 -28 -28 -28 -27 -26
-2 -5 -4 -2 -2 -1 -1 -1 -2 -3 -4 -5 -7 -9 -13 -23 -28 -27 -24 -23 -22 -22 -23 -24 -24 -25 -25 -26 -25 -25 -26 -27 -27 -27 -27 -28 -28 -27 -27 -27 -27 -28 -28 -27
-3 -3 -2 -2 -2 -3 -2 -3 -3 -4 -5 -6 -7 -15 -27 -29 -28 -27 -25 -23 -22 -20 -22 -23 -24 -24 -25 -25 -24 -24 -25 -26 -26 -26 -26 -26 -26 -26 -27 -26 -26 -26 -26 -27